This is the latest recevied weather packets stored in our database for station/object HASTNG-WX. If no packets are shown the sender has not sent any weather packets the latest 10 day(s).
| Time | Temp. | Humidity | Pressure | Rain* | Wind** | Luminosity | Snow |
|---|---|---|---|---|---|---|---|
| 1777910464 | 20.56° C | 36% | 974 hPa | 0 mm | - | - | - |
| 1777909534 | 20° C | 53% | 974.5 hPa | 0 mm | - | - | - |
| 1777908651 | 18.89° C | 53% | 974.4 hPa | 0 mm | - | - | - |
| 1777907736 | 17.78° C | 53% | 974.4 hPa | 0 mm | - | - | - |
| 1777906867 | 17.78° C | 53% | 974.4 hPa | 0 mm | - | - | - |
| 1777905935 | 17.22° C | 60% | 974.7 hPa | 0 mm | - | - | - |
| 1777905053 | 16.67° C | 61% | 975.3 hPa | 0 mm | - | - | - |
| 1777904130 | 15.56° C | 61% | 975.2 hPa | 0 mm | - | - | - |
| 1777903270 | 15.56° C | 60% | 974.4 hPa | 0 mm | - | - | - |
| 1777902334 | 15° C | 66% | 974.3 hPa | 0 mm | - | - | - |
| 1777901452 | 13.89° C | 66% | 974.3 hPa | 0 mm | - | - | - |
| 1777900535 | 13.33° C | 66% | 974.3 hPa | 0 mm | - | - | - |
| 1777899664 | 12.78° C | 66% | 974.3 hPa | 0 mm | - | - | - |
| 1777898734 | 11.67° C | 77% | 974.6 hPa | 0 mm | - | - | - |
| 1777897852 | 11.11° C | 77% | 974.7 hPa | 0 mm | - | - | - |
| 1777896934 | 10.56° C | 77% | 974.7 hPa | 0 mm | - | - | - |
| 1777896066 | 10° C | 77% | 974.7 hPa | 0 mm | - | - | - |
| 1777895134 | 8.89° C | 82% | 973.4 hPa | 0 mm | - | - | - |
| 1777894251 | 7.78° C | 84% | 974 hPa | 0 mm | - | - | - |
| 1777893334 | 7.78° C | 84% | 974 hPa | 0 mm | - | - | - |
| 1777892463 | 7.22° C | 84% | 974 hPa | 0 mm | - | - | - |
| 1777891534 | 7.22° C | 80% | 974 hPa | 0 mm | - | - | - |
| 1777890653 | 7.22° C | 81% | 974 hPa | 0 mm | - | - | - |
| 1777889731 | 7.78° C | 81% | 974.1 hPa | 0 mm | - | - | - |
| 1777888862 | 7.78° C | 81% | 974.1 hPa | 0 mm | - | - | - |
* Rain latest hour (hover to see other rain measurements)
** Current wind speed in m/s (hover to see current wind gust speed)